TITAN 3C TRANSTAGE DEB, 1671

Orbit data source: Space-Track

TITAN 3C TRANSTAGE DEB, 1671 is space debris in LEO originally from a launch on Fri, 15 Oct 1965 UTC launched from the Air Force Eastern Test Range (AFETR). Debris objects in space refer to the collection of defunct objects orbiting the Earth. Examples of debris include non-operational satellites, rocket bodies, and fragments generated from explosions, collisions, or faulty payload assembly.

Loading next visibility...
TITAN 3C TRANSTAGE DEB details
Identifier
1671, 1965-082AJ
Orbit
LEO
Last TLE update20 hours ago
Origin
Flag of USUSAF SSD (US)
ManufacturerUnknown
MissionSpacecraft
Bus & MotorUnknown
MassUnknown
Launch date (UTC)
1965-10-15 (59 years ago)
Launch vehicleUnknown
Launch site
Air Force Eastern Test Range (AFETR)
Object type
Payload
Rocket body
Debris
Shape & HBRUnknown
Radar Cross SectionMedium (>0.1 m² and <1 m²)

Expand to show TLE details & history

TLE from 20 hours ago
0 TITAN 3C TRANSTAGE DEB
1 01671U 65082AJ  24355.69093226  .00000910  00000-0  20390-3 0  9999
2 01671  32.1626 342.7390 0052560  78.0169 282.6359 14.53276978107256
Epoch: 2024-12-20T16:34Z
Definitive object data (Epoch: 2024-12-20T16:34:56.547Z)
Latitude-0.00003°
Longitude4.25052°
Altitude705.658 km
Speed7.509 km/s
True Right ascension22h 50m 57s
True Declination0° 00' 00"
Sunlit
Object was in daylight at TLE epoch
Visualization TLE readout
Latitude-0.48681°
Longitude-1.32156°
Altitude711.01 km
Speed7.504 km/s
Apparent Right ascension22h 51m 03s
Apparent Declination-19° 08' 09"
Sunlit
Object is in daylight
Visualization observer readout
Local Sidereal Time11:23:30
Azimuth20.923° NNE
Elevation-68.078°
Doppler factor1
Orbital elements
Apogee altitude755.842 km
Perigee altitude681.241 km
Semi-major axis7,096.678 km
Eccentricity0.005256
Inclination32.1626°
RAAN342.739°
Arg. of periapsis78.0169°
True anomaly282.04736°
Mean anomaly282.6359°
Eccentric anomaly282.34171°
Mean motion3.63045 °/min
BSTAR0.0002039
Orbital period99.16 mins
Loading maneuver chart data...

TITAN 3C TRANSTAGE DEB Visibility forecast

Observer location: undefined°, undefined

Span
Click to sort rows by Start time (UTC) header in descending order
Start Az.
Max El. time (UTC)
Max El. Az.
Max El.
End time (UTC)
End Az.
6 mins2024-12-22 03:28:42.958Z210.483° SW2024-12-22 03:31:42.958Z162.105° S22.91°2024-12-22 03:34:42.958Z117.65° SE
7 mins2024-12-22 05:12:42.958Z236.588° WSW2024-12-22 05:15:42.958Z187.345° SSW28.396°2024-12-22 05:19:42.958Z121.265° SE
6 mins2024-12-22 06:57:42.958Z237.461° WSW2024-12-22 07:00:42.958Z189.511° SSW21.737°2024-12-22 07:03:42.958Z147.476° SSE
|